Terug naar catalogus

ONEWEB-0665

ActiefCommunicatiePO
NORAD 55825·PAYLOAD·🇬🇧 United Kingdom

Gelanceerd Mar 9, 2023 vanaf Cape Canaveral Space Force Station

Loading…

Volgende Passages (komende 24 uur)

TLE

VersSource: CelesTrak SupGP

Epoch: Sep 14, 2026, 09:13 UTC

1 55825C 23029AF  26257.38417081  .00002005  00000+0  54151-2 0  2576
2 55825  87.8889 271.9300 0002079  86.2789 348.0924 13.14496685    13

Volg ONEWEB-0665 in realtime met AllMySat

Download on the App Store